KO4IEJ Weather Reports


time (UTC)temp
C
wind
direction
speed
KPH
gust
KPH
rain 1hr
cm
rain 24hr
cm
rain mn
cm
humidity
%
barometer
mb
20260906220059 27 29 1.6 8.0 0.00 0.00 0.00 19 1025.5
20260906214557 27 75 1.6 12.9 0.00 0.00 0.00 19 1025.7
20260906213053 27 309 6.4 14.5 0.00 0.00 0.00 16 1025.9
20260906211604 28 259 1.6 8.0 0.00 0.00 0.00 16 1026.1
20260906210103 27 307 3.2 14.5 0.00 0.00 0.00 18 1026.2
20260906204608 28 22 3.2 16.1 0.00 0.00 0.00 20 1026.1
20260906203104 27 43 8.0 27.4 0.00 0.00 0.00 21 1026.1
20260906201557 28 296 6.4 19.3 0.00 0.00 0.00 20 1026.2
20260906194609 28 170 1.6 11.3 0.00 0.00 0.00 22 1026.3
20260906193107 28 241 4.8 9.7 0.00 0.00 0.00 23 1026.4
20260906191604 28 234 4.8 14.5 0.00 0.00 0.00 23 1026.7
20260906184610 27 238 3.2 8.0 0.00 0.00 0.00 26 1027.1
20260906183107 26 223 1.6 9.7 0.00 0.00 0.00 27 1027.4
20260906181609 26 252 3.2 8.0 0.00 0.00 0.00 28 1027.6
20260906180105 25 267 3.2 11.3 0.00 0.00 0.00 30 1027.9
20260906174607 25 269 1.6 8.0 0.00 0.00 0.00 33 1028.0
20260906173103 25 228 1.6 12.9 0.00 0.00 0.00 35 1028.2
20260906171604 23 267 0.0 6.4 0.00 0.00 0.00 29 1028.3
20260906164604 22 229 1.6 4.8 0.00 0.00 0.00 40 1028.6
20260906163107 22 188 3.2 8.0 0.00 0.00 0.00 40 1028.7
20260906161602 21 217 3.2 8.0 0.00 0.00 0.00 42 1028.8
20260906160100 21 254 3.2 6.4 0.00 0.00 0.00 43 1028.7
20260906154558 20 181 3.2 8.0 0.00 0.00 0.00 42 1028.5
20260906153105 20 229 1.6 4.8 0.00 0.00 0.00 48 1028.5
20260906151607 20 239 1.6 6.4 0.00 0.00 0.00 46 1028.6
20260906150100 19 267 1.6 4.8 0.00 0.00 0.00 51 1028.7
20260906144631 18 217 1.6 4.8 0.00 0.00 0.00 53 1028.6
20260906143115 17 251 1.6 3.2 0.00 0.00 0.00 59 1028.7
20260906141605 16 236 1.6 3.2 0.00 0.00 0.00 60 1028.7
20260906140100 15 0 0.0 3.2 0.00 0.00 0.00 61 1028.6
20260906134604 13 0 0.0 0.0 0.00 0.00 0.00 69 1028.4
20260906133105 11 0 0.0 0.0 0.00 0.00 0.00 75 1028.5
20260906131610 10 0 0.0 0.0 0.00 0.00 0.00 75 1028.5
20260906130106 10 0 0.0 0.0 0.00 0.00 0.00 76 1028.2
20260906124605 9 0 0.0 0.0 0.00 0.00 0.00 77 1028.2
20260906123101 9 0 0.0 0.0 0.00 0.00 0.00 77 1028.1
20260906121555 9 0 0.0 0.0 0.00 0.00 0.00 76 1028.0
20260906120131 10 0 0.0 0.0 0.00 0.00 0.00 75 1028.0
20260906114558 10 0 0.0 0.0 0.00 0.00 0.00 77 1028.0
20260906113058 9 0 0.0 0.0 0.00 0.00 0.00 78 1027.8
20260906111607 10 0 0.0 1.6 0.00 0.00 0.00 76 1027.7
20260906110113 10 30 1.6 1.6 0.00 0.00 0.00 75 1027.6
20260906104601 10 30 1.6 1.6 0.00 0.00 0.00 75 1027.6
20260906103106 10 29 0.0 1.6 0.00 0.00 0.00 75 1027.6
20260906101605 11 30 0.0 1.6 0.00 0.00 0.00 74 1027.6
20260906100110 11 29 1.6 1.6 0.00 0.00 0.00 73 1027.7
20260906094558 11 31 1.6 3.2 0.00 0.00 0.00 73 1027.6
20260906093113 11 32 1.6 3.2 0.00 0.00 0.00 73 1027.7
20260906091605 11 33 1.6 3.2 0.00 0.00 0.00 73 1027.8
20260906090124 11 17 0.0 1.6 0.00 0.00 0.00 74 1027.8
20260906084554 11 17 0.0 1.6 0.00 0.00 0.00 73 1027.9
20260906083055 11 17 0.0 1.6 0.00 0.00 0.00 72 1027.9
20260906081604 11 17 0.0 1.6 0.00 0.00 0.00 72 1027.9
20260906080104 12 30 0.0 1.6 0.00 0.00 0.00 71 1027.6
20260906074558 12 30 1.6 3.2 0.00 0.00 0.00 70 1027.5
20260906073055 12 30 1.6 3.2 0.00 0.00 0.00 70 1027.5
20260906071611 12 27 1.6 1.6 0.00 0.00 0.00 70 1027.6
20260906070104 12 29 1.6 3.2 0.00 0.00 0.00 73 1027.4
20260906064556 12 29 1.6 1.6 0.00 0.00 0.00 71 1027.3
20260906063106 12 30 1.6 1.6 0.00 0.00 0.00 71 1027.3
20260906061555 13 30 0.0 3.2 0.00 0.00 0.00 71 1027.3
20260906060109 12 32 1.6 3.2 0.00 0.00 0.00 75 1027.4
20260906054558 12 32 0.0 3.2 0.00 0.00 0.00 75 1027.4
20260906053054 12 32 1.6 3.2 0.00 0.00 0.00 75 1027.5
20260906051555 13 32 1.6 1.6 0.00 0.00 0.00 73 1027.6
20260906050131 13 34 1.6 3.2 0.00 0.00 0.00 74 1027.8
20260906044556 13 34 1.6 3.2 0.00 0.00 0.00 76 1027.7
20260906043111 14 0 0.0 1.6 0.00 0.00 0.00 78 1028.0
20260906041605 14 0 0.0 1.6 0.00 0.00 0.00 79 1028.1
20260906040104 15 44 1.6 3.2 0.00 0.00 0.00 72 1028.1
20260906034611 16 82 0.0 17.7 0.00 0.00 0.00 72 1028.5
20260906033106 18 347 9.7 20.9 0.00 0.00 0.00 56 1028.3
20260906031601 19 265 3.2 9.7 0.00 0.00 0.00 51 1028.2
20260906030129 18 52 3.2 8.0 0.00 0.00 0.00 52 1027.7
20260906024557 17 359 0.0 1.6 0.00 0.00 0.00 55 1027.5
20260906023126 17 1 0.0 1.6 0.00 0.00 0.00 54 1027.2
20260906021613 18 341 0.0 1.6 0.00 0.00 0.00 57 1027.1
20260906020113 18 0 0.0 1.6 0.00 0.00 0.00 60 1027.0
20260906014628 17 0 0.0 3.2 0.00 0.00 0.00 64 1026.9
20260906013054 20 332 0.0 1.6 0.00 0.00 0.00 58 1027.1
20260906011553 21 0 0.0 1.6 0.00 0.00 0.00 52 1026.9
20260906004603 22 0 0.0 1.6 0.00 0.00 0.00 41 1026.7
20260906003109 23 134 1.6 4.8 0.00 0.00 0.00 40 1026.6
20260906001606 23 155 0.0 4.8 0.00 0.00 0.00 39 1026.7
20260906000105 23 122 1.6 8.0 0.00 0.00 0.00 38 1026.4
20260905234612 24 217 1.6 8.0 0.00 0.00 0.00 36 1026.3
20260905233104 25 172 1.6 8.0 0.00 0.00 0.00 34 1026.2
20260905231609 26 210 3.2 12.9 0.00 0.00 0.00 34 1026.2
20260905230105 26 247 1.6 8.0 0.00 0.00 0.00 31 1026.1
20260905224556 25 251 0.0 3.2 0.00 0.00 0.00 34 1026.1
20260905223056 27 215 1.6 4.8 0.00 0.00 0.00 22 1026.1
20260905221605 27 319 1.6 6.4 0.00 0.00 0.00 20 1026.2